RH
11 11 11 10 9 9 10 10 9 8 7 5 3 3 2 4 5 5 12 17 25 32 31 29 31 34 34 42 47 43 50 52 50 46 43 42 36 41 42 44 47 45 43 40 43
11 11 11 10 9 9 9 10 9 8 7 5 3 3 2 3 4 4 9 14 24 31 31 30 30 30 34 37 41 42 50 47 41 36 33 36 54 57 55 40 43 42 43 44 44
11 11 11 10 8 8 9 9 9 8 7 6 4 3 3 3 3 3 4 13 22 30 31 34 31 31 36 38 39 43 43 45 45 40 29 31 38 47 53 41 41 41 43 45 48
12 11 11 10 8 8 9 9 9 8 7 6 4 4 5 8 16 8 4 11 23 32 34 36 34 38 41 38 33 33 39 41 38 36 27 29 33 44 45 44 42 42 42 48 52
12 12 11 10 9 8 9 9 9 8 8 6 5 5 8 12 13 12 6 11 25 34 37 38 39 40 39 33 34 38 44 42 45 43 29 31 39 44 42 45 47 46 48 47 50
13 13 12 11 9 8 8 8 8 8 8 7 6 6 9 15 13 11 6 16 29 34 33 37 35 41 37 34 34 38 45 49 50 45 49 38 41 42 42 45 50 54 63 60 55
13 13 12 11 10 9 9 8 8 8 7 7 6 6 8 14 12 10 12 21 32 31 31 29 35 37 37 35 32 39 50 44 44 48 51 36 38 38 39 47 52 63 63 69 68
12 12 11 11 10 9 8 8 7 7 7 7 7 7 6 11 12 10 18 28 31 30 27 25 34 36 37 40 37 40 40 45 49 55 51 43 32 35 39 49 72 77 74 81 77
12 11 10 10 9 9 8 8 8 7 7 7 7 10 10 13 10 11 20 28 30 28 26 30 36 32 35 38 44 47 48 47 46 45 45 35 45 43 38 52 69 56 53 68 78
13 11 10 9 9 8 7 7 7 7 7 7 9 10 10 12 10 10 19 27 29 28 26 32 32 35 41 43 52 49 47 39 48 50 49 47 45 44 43 41 53 65 50 56 70
16 13 10 9 9 8 7 9 15 15 11 7 8 8 12 11 9 12 18 25 27 28 27 28 33 38 40 42 40 37 36 45 49 45 54 46 46 58 49 63 62 64 55 54 61
18 15 12 11 10 9 8 12 13 16 14 10 10 10 10 11 11 14 17 22 25 26 25 27 35 38 41 41 38 34 40 43 45 37 44 40 48 53 57 60 64 57 57 58 60
19 16 12 11 10 11 11 12 12 12 12 10 9 9 10 11 12 14 16 19 24 23 26 30 38 45 50 49 39 34 39 36 32 34 26 33 40 50 47 54 40 50 52 53 59
20 17 13 11 11 13 15 15 13 13 15 9 7 8 9 10 11 12 12 18 21 25 31 34 42 40 40 46 42 31 33 30 29 29 31 27 41 37 40 39 34 45 52 47 55
21 18 13 12 11 15 16 16 14 15 26 14 11 10 9 8 8 9 11 17 22 26 32 33 37 39 35 39 35 28 29 30 28 26 31 35 41 45 44 39 30 31 36 41 50
21 18 13 12 10 10 13 14 14 20 21 16 13 14 13 10 8 10 11 14 18 28 33 40 44 44 39 40 39 30 30 32 26 31 38 34 40 50 52 44 31 28 34 37 44
20 18 12 11 11 13 12 14 19 23 17 18 18 16 14 10 9 10 12 14 15 23 31 33 39 41 37 37 37 34 28 34 37 41 36 33 47 60 52 40 34 34 37 37 44
19 16 11 10 10 14 13 16 23 18 22 22 23 19 15 11 10 10 14 14 15 15 23 27 29 29 35 36 40 34 28 35 37 38 34 32 52 56 53 45 42 42 43 38 40
18 15 12 12 9 11 14 20 16 22 24 21 22 22 16 12 12 12 13 15 14 12 17 20 18 19 22 27 31 30 32 30 28 29 32 47 47 50 52 55 50 49 42 36 38
18 17 14 16 10 12 16 17 16 22 24 24 26 22 17 16 14 14 16 16 15 13 12 14 18 17 18 18 19 18 25 29 30 33 41 52 58 63 54 53 52 50 45 37 39
19 32 24 21 13 13 16 13 14 21 22 22 24 23 21 22 17 16 17 18 18 14 13 13 16 15 15 16 16 18 21 25 29 30 29 48 49 47 51 54 51 54 49 45 46
26 40 36 30 20 13 13 11 17 22 22 21 21 23 21 21 22 16 17 18 17 17 17 14 15 16 16 16 16 15 16 26 32 25 26 31 45 42 43 48 46 41 52 49 53
27 42 36 31 23 15 17 15 18 20 23 24 18 21 22 23 24 23 18 17 17 17 17 17 17 17 18 18 16 16 19 22 24 23 35 34 42 46 45 42 42 32 47 56 56
41 52 43 32 20 20 24 27 28 18 21 21 19 17 25 24 25 26 23 18 17 17 17 17 17 16 19 24 22 23 18 22 27 31 34 30 44 43 46 42 47 45 47 63 51
39 55 51 45 33 31 32 31 29 30 26 21 15 17 21 27 30 29 29 19 17 18 18 16 15 15 17 19 26 28 28 25 26 22 26 30 34 40 45 48 56 52 64 54 45
50 50 46 46 45 40 37 35 31 34 38 29 23 16 19 21 31 36 37 32 29 26 20 18 13 14 20 17 24 30 29 30 22 23 23 29 33 42 50 49 41 54 57 46 42
53 48 52 54 54 47 49 49 40 34 33 42 47 32 24 27 39 38 38 35 31 32 21 19 12 15 21 21 26 34 33 31 24 27 25 27 35 45 60 58 55 55 45 41 38